| time (UTC) | temp F | wind direction | speed knots | gust knots | rain 1hr in | rain 24hr in | rain mn in | humidity % | barometer mb |
| 20260510075503 | 69 | 81 | 0.0 | 0.0 | 0.00 | 0.00 | 0.00 | 94 | 1011.3 |
| 20260510075009 | 68 | 80 | 0.0 | 0.0 | 0.00 | 0.00 | 0.00 | 94 | 1011.3 |
| 20260510074511 | 68 | 80 | 0.0 | 0.0 | 0.00 | 0.00 | 0.00 | 94 | 1011.2 |
| 20260510074009 | 69 | 80 | 0.0 | 0.0 | 0.00 | 0.00 | 0.00 | 94 | 1011.4 |
| 20260510073506 | 69 | 80 | 0.0 | 0.0 | 0.00 | 0.00 | 0.00 | 94 | 1011.3 |
| 20260510073003 | 69 | 80 | 0.0 | 0.0 | 0.00 | 0.00 | 0.00 | 94 | 1011.3 |
| 20260510072507 | 69 | 80 | 0.0 | 0.0 | 0.00 | 0.00 | 0.00 | 93 | 1011.2 |
| 20260510072003 | 69 | 80 | 0.0 | 0.0 | 0.00 | 0.00 | 0.00 | 94 | 1011.2 |
| 20260510071504 | 69 | 80 | 0.0 | 0.0 | 0.00 | 0.00 | 0.00 | 93 | 1011.2 |
| 20260510071006 | 69 | 80 | 0.0 | 0.0 | 0.00 | 0.00 | 0.00 | 93 | 1011.5 |
| 20260510070506 | 69 | 80 | 0.0 | 0.0 | 0.00 | 0.00 | 0.00 | 93 | 1011.6 |
| 20260510070024 | 69 | 80 | 0.0 | 0.0 | 0.00 | 0.00 | 0.00 | 93 | 1011.4 |
| 20260510065510 | 69 | 80 | 0.0 | 0.0 | 0.00 | 0.00 | 0.00 | 93 | 1011.4 |
| 20260510065004 | 70 | 80 | 0.0 | 0.0 | 0.00 | 0.00 | 0.00 | 93 | 1011.6 |
| 20260510064520 | 70 | 80 | 0.0 | 0.0 | 0.00 | 0.00 | 0.00 | 93 | 1011.7 |
| 20260510064005 | 70 | 80 | 0.0 | 0.0 | 0.00 | 0.00 | 0.00 | 93 | 1011.8 |
| 20260510063502 | 70 | 80 | 0.0 | 0.0 | 0.00 | 0.00 | 0.00 | 93 | 1011.8 |
| 20260510063017 | 70 | 80 | 0.0 | 0.0 | 0.00 | 0.00 | 0.00 | 93 | 1011.8 |
| 20260510062504 | 70 | 80 | 0.0 | 0.0 | 0.00 | 0.00 | 0.00 | 93 | 1011.8 |
| 20260510062009 | 70 | 80 | 0.0 | 0.0 | 0.00 | 0.00 | 0.00 | 93 | 1011.9 |
| 20260510061514 | 70 | 80 | 0.0 | 0.0 | 0.00 | 0.00 | 0.00 | 92 | 1011.9 |
| 20260510061003 | 70 | 80 | 0.0 | 0.0 | 0.00 | 0.00 | 0.00 | 92 | 1011.9 |
| 20260510060507 | 71 | 80 | 0.0 | 0.0 | 0.00 | 0.00 | 0.00 | 91 | 1011.8 |
| 20260510060021 | 71 | 80 | 0.0 | 0.0 | 0.00 | 0.00 | 0.00 | 91 | 1011.7 |
| 20260510055507 | 71 | 80 | 0.0 | 0.0 | 0.00 | 0.00 | 0.00 | 91 | 1011.8 |
| 20260510055004 | 71 | 80 | 0.0 | 0.0 | 0.00 | 0.00 | 0.00 | 90 | 1011.8 |
| 20260510054511 | 71 | 80 | 0.0 | 0.0 | 0.00 | 0.00 | 0.00 | 91 | 1011.8 |
| 20260510054009 | 71 | 80 | 0.0 | 0.0 | 0.00 | 0.00 | 0.00 | 90 | 1011.9 |
| 20260510053505 | 71 | 80 | 0.0 | 0.0 | 0.00 | 0.00 | 0.00 | 90 | 1011.7 |
| 20260510053009 | 72 | 80 | 0.0 | 0.0 | 0.00 | 0.00 | 0.00 | 89 | 1011.8 |
| 20260510052506 | 72 | 80 | 0.0 | 0.0 | 0.00 | 0.00 | 0.00 | 89 | 1012.0 |
| 20260510052007 | 72 | 80 | 0.0 | 0.9 | 0.00 | 0.00 | 0.00 | 89 | 1011.9 |
| 20260510051526 | 72 | 80 | 0.0 | 0.9 | 0.00 | 0.00 | 0.00 | 89 | 1011.8 |
| 20260510051008 | 72 | 80 | 0.0 | 0.0 | 0.00 | 0.00 | 0.00 | 88 | 1011.8 |
| 20260510050502 | 72 | 81 | 0.0 | 0.0 | 0.00 | 0.00 | 0.00 | 88 | 1011.8 |
| 20260510050024 | 72 | 79 | 0.0 | 0.0 | 0.00 | 0.00 | 0.00 | 87 | 1011.9 |
| 20260510045506 | 72 | 79 | 0.0 | 0.9 | 0.00 | 0.00 | 0.00 | 87 | 1011.8 |
| 20260510045004 | 72 | 81 | 0.0 | 0.9 | 0.00 | 0.00 | 0.00 | 86 | 1011.8 |
| 20260510044522 | 73 | 82 | 0.0 | 0.0 | 0.00 | 0.00 | 0.00 | 85 | 1011.8 |
| 20260510044007 | 73 | 81 | 0.0 | 0.9 | 0.00 | 0.00 | 0.00 | 85 | 1012.0 |
| 20260510043510 | 73 | 82 | 0.0 | 0.9 | 0.00 | 0.00 | 0.00 | 85 | 1011.9 |
| 20260510043020 | 73 | 82 | 0.0 | 0.9 | 0.00 | 0.00 | 0.00 | 84 | 1011.9 |
| 20260510042505 | 73 | 82 | 0.0 | 0.9 | 0.00 | 0.00 | 0.00 | 84 | 1011.9 |
| 20260510042009 | 73 | 82 | 0.0 | 0.9 | 0.00 | 0.00 | 0.00 | 83 | 1011.9 |
| 20260510041517 | 74 | 81 | 0.0 | 0.9 | 0.00 | 0.00 | 0.00 | 82 | 1011.9 |
| 20260510041003 | 74 | 80 | 0.0 | 0.9 | 0.00 | 0.00 | 0.00 | 82 | 1011.9 |
| 20260510040508 | 74 | 107 | 0.0 | 0.9 | 0.00 | 0.00 | 0.00 | 81 | 1011.8 |
| 20260510040012 | 74 | 86 | 0.0 | 0.9 | 0.00 | 0.00 | 0.00 | 80 | 1011.9 |
| 20260510035509 | 74 | 82 | 0.0 | 0.0 | 0.00 | 0.00 | 0.00 | 80 | 1011.9 |
| 20260510035007 | 74 | 89 | 0.0 | 0.9 | 0.00 | 0.00 | 0.00 | 80 | 1011.9 |
| 20260510034512 | 75 | 89 | 0.0 | 0.9 | 0.00 | 0.00 | 0.00 | 79 | 1011.9 |
| 20260510034010 | 75 | 91 | 0.0 | 2.6 | 0.00 | 0.00 | 0.00 | 79 | 1012.1 |
| 20260510033507 | 75 | 96 | 0.0 | 2.6 | 0.00 | 0.00 | 0.00 | 79 | 1012.1 |
| 20260510033027 | 75 | 100 | 0.9 | 2.6 | 0.00 | 0.00 | 0.00 | 78 | 1011.9 |
| 20260510032508 | 75 | 105 | 0.9 | 2.6 | 0.00 | 0.00 | 0.00 | 78 | 1012.1 |
| 20260510032007 | 75 | 95 | 0.0 | 4.3 | 0.00 | 0.00 | 0.00 | 78 | 1012.2 |
| 20260510031507 | 76 | 130 | 0.0 | 4.3 | 0.00 | 0.00 | 0.00 | 79 | 1012.1 |
| 20260510031008 | 76 | 74 | 1.7 | 4.3 | 0.00 | 0.00 | 0.00 | 80 | 1012.1 |
| 20260510030503 | 76 | 101 | 0.9 | 3.5 | 0.00 | 0.00 | 0.00 | 81 | 1012.0 |
| 20260510030006 | 76 | 69 | 0.9 | 2.6 | 0.00 | 0.00 | 0.00 | 79 | 1012.0 |
| 20260510025507 | 75 | 60 | 0.9 | 2.6 | 0.00 | 0.00 | 0.00 | 79 | 1011.9 |
| 20260510025003 | 74 | 100 | 0.0 | 0.9 | 0.00 | 0.00 | 0.00 | 80 | 1011.8 |
| 20260510024532 | 74 | 100 | 0.0 | 0.9 | 0.00 | 0.00 | 0.00 | 80 | 1011.4 |
| 20260510024003 | 74 | 100 | 0.0 | 0.9 | 0.00 | 0.00 | 0.00 | 80 | 1011.1 |
| 20260510023505 | 74 | 101 | 0.0 | 0.9 | 0.00 | 0.00 | 0.00 | 81 | 1010.7 |
| 20260510023022 | 74 | 218 | 0.0 | 0.0 | 0.00 | 0.00 | 0.00 | 80 | 1010.4 |
| 20260510022504 | 75 | 219 | 0.0 | 0.0 | 0.00 | 0.00 | 0.00 | 80 | 1010.4 |
| 20260510022006 | 75 | 218 | 0.0 | 0.0 | 0.00 | 0.00 | 0.00 | 79 | 1010.3 |
| 20260510021522 | 75 | 218 | 0.0 | 0.0 | 0.00 | 0.00 | 0.00 | 78 | 1010.1 |
| 20260510021003 | 76 | 218 | 0.0 | 0.0 | 0.00 | 0.00 | 0.00 | 77 | 1010.0 |
| 20260510020506 | 76 | 218 | 0.0 | 0.0 | 0.00 | 0.00 | 0.00 | 76 | 1010.1 |
| 20260510020018 | 77 | 219 | 0.0 | 0.0 | 0.00 | 0.00 | 0.00 | 76 | 1010.1 |
| 20260510015505 | 77 | 218 | 0.0 | 0.0 | 0.00 | 0.00 | 0.00 | 76 | 1009.9 |
| 20260510015005 | 78 | 219 | 0.0 | 0.0 | 0.00 | 0.00 | 0.00 | 75 | 1009.8 |
| 20260510014513 | 78 | 218 | 0.0 | 0.0 | 0.00 | 0.00 | 0.00 | 75 | 1009.8 |
| 20260510014008 | 79 | 219 | 0.0 | 0.0 | 0.00 | 0.00 | 0.00 | 73 | 1009.9 |
| 20260510013507 | 79 | 217 | 0.0 | 0.0 | 0.00 | 0.00 | 0.00 | 74 | 1009.7 |
| 20260510013009 | 80 | 217 | 0.0 | 0.0 | 0.00 | 0.00 | 0.00 | 73 | 1009.7 |
| 20260510012508 | 80 | 226 | 0.0 | 0.0 | 0.00 | 0.00 | 0.00 | 76 | 1009.7 |
| 20260510012004 | 80 | 226 | 0.0 | 0.9 | 0.00 | 0.00 | 0.00 | 77 | 1009.6 |
| 20260510011507 | 81 | 207 | 0.0 | 1.7 | 0.00 | 0.00 | 0.00 | 78 | 1009.6 |
| 20260510011007 | 81 | 103 | 0.0 | 1.7 | 0.00 | 0.00 | 0.00 | 81 | 1009.3 |
| 20260510010504 | 82 | 62 | 0.0 | 0.0 | 0.00 | 0.00 | 0.00 | 85 | 1009.3 |
| 20260510010025 | 82 | 217 | 0.0 | 0.0 | 0.00 | 0.00 | 0.00 | 85 | 1009.1 |
| 20260510005505 | 82 | 217 | 0.0 | 0.0 | 0.00 | 0.00 | 0.00 | 84 | 1008.8 |
| 20260510005002 | 82 | 217 | 0.0 | 0.0 | 0.00 | 0.00 | 0.00 | 85 | 1008.7 |
| 20260510004525 | 82 | 217 | 0.0 | 0.0 | 0.00 | 0.00 | 0.00 | 85 | 1008.6 |
| 20260510004008 | 82 | 217 | 0.0 | 0.0 | 0.00 | 0.00 | 0.00 | 85 | 1008.7 |
| 20260510003503 | 82 | 217 | 0.0 | 0.0 | 0.00 | 0.00 | 0.00 | 85 | 1008.8 |
| 20260510003030 | 82 | 217 | 0.0 | 0.0 | 0.00 | 0.00 | 0.00 | 84 | 1008.8 |
| 20260510002505 | 82 | 217 | 0.0 | 0.0 | 0.00 | 0.00 | 0.00 | 84 | 1008.8 |
| 20260510002014 | 82 | 217 | 0.0 | 0.0 | 0.00 | 0.00 | 0.00 | 84 | 1008.7 |
| 20260510001521 | 82 | 217 | 0.0 | 0.0 | 0.00 | 0.00 | 0.00 | 83 | 1008.6 |
| 20260510001004 | 82 | 217 | 0.0 | 0.0 | 0.00 | 0.00 | 0.00 | 83 | 1008.6 |
| 20260510000508 | 82 | 217 | 0.0 | 0.0 | 0.00 | 0.00 | 0.00 | 83 | 1008.5 |
| 20260510000018 | 82 | 217 | 0.0 | 0.0 | 0.00 | 0.00 | 0.00 | 83 | 1008.5 |
| 20260509235501 | 82 | 217 | 0.0 | 0.0 | 0.00 | 0.00 | 0.00 | 83 | 1008.5 |
| 20260509235013 | 82 | 217 | 0.0 | 0.0 | 0.00 | 0.00 | 0.00 | 82 | 1008.4 |
| 20260509234527 | 82 | 217 | 0.0 | 0.0 | 0.00 | 0.00 | 0.00 | 82 | 1008.5 |
| 20260509234010 | 82 | 217 | 0.0 | 0.0 | 0.00 | 0.00 | 0.00 | 82 | 1008.6 |
| 20260509233508 | 82 | 217 | 0.0 | 0.0 | 0.00 | 0.00 | 0.00 | 81 | 1008.6 |
| 20260509233010 | 83 | 217 | 0.0 | 0.0 | 0.00 | 0.00 | 0.00 | 81 | 1008.6 |
| 20260509232507 | 83 | 217 | 0.0 | 0.0 | 0.00 | 0.00 | 0.00 | 81 | 1008.6 |
| 20260509232007 | 83 | 217 | 0.0 | 0.0 | 0.00 | 0.00 | 0.00 | 80 | 1008.7 |
| 20260509231528 | 83 | 217 | 0.0 | 0.0 | 0.00 | 0.00 | 0.00 | 78 | 1008.5 |
| 20260509231007 | 84 | 217 | 0.0 | 0.0 | 0.00 | 0.00 | 0.00 | 78 | 1008.6 |
| 20260509230513 | 84 | 217 | 0.0 | 0.0 | 0.00 | 0.00 | 0.00 | 76 | 1008.3 |
| 20260509230024 | 84 | 217 | 0.0 | 0.0 | 0.00 | 0.00 | 0.00 | 76 | 1008.4 |
| 20260509225505 | 85 | 217 | 0.0 | 0.0 | 0.00 | 0.00 | 0.00 | 75 | 1008.2 |
| 20260509225004 | 86 | 217 | 0.0 | 0.0 | 0.00 | 0.00 | 0.00 | 74 | 1008.2 |
| 20260509224525 | 86 | 217 | 0.0 | 0.0 | 0.00 | 0.00 | 0.00 | 71 | 1008.2 |
| 20260509224005 | 87 | 217 | 0.0 | 0.0 | 0.00 | 0.00 | 0.00 | 69 | 1008.3 |
| 20260509223508 | 87 | 217 | 0.0 | 0.0 | 0.00 | 0.00 | 0.00 | 69 | 1008.2 |
| 20260509223023 | 88 | 217 | 0.0 | 0.0 | 0.00 | 0.00 | 0.00 | 68 | 1008.1 |
| 20260509222503 | 89 | 217 | 0.0 | 0.0 | 0.00 | 0.00 | 0.00 | 66 | 1008.3 |
| 20260509222010 | 90 | 217 | 0.0 | 0.0 | 0.00 | 0.00 | 0.00 | 62 | 1008.1 |
| 20260509221522 | 90 | 217 | 0.0 | 0.0 | 0.00 | 0.00 | 0.00 | 63 | 1008.0 |
| 20260509221004 | 90 | 217 | 0.0 | 0.0 | 0.00 | 0.00 | 0.00 | 62 | 1008.1 |
| 20260509220508 | 91 | 217 | 0.0 | 0.9 | 0.00 | 0.00 | 0.00 | 63 | 1008.0 |
| 20260509220019 | 90 | 215 | 0.0 | 0.9 | 0.00 | 0.00 | 0.00 | 66 | 1008.1 |
| 20260509215516 | 90 | 324 | 0.0 | 0.0 | 0.00 | 0.00 | 0.00 | 67 | 1008.1 |
| 20260509215011 | 90 | 324 | 0.0 | 0.0 | 0.00 | 0.00 | 0.00 | 64 | 1008.2 |
| 20260509214515 | 91 | 324 | 0.0 | 0.0 | 0.00 | 0.00 | 0.00 | 66 | 1008.2 |
| 20260509214014 | 90 | 324 | 0.0 | 0.0 | 0.00 | 0.00 | 0.00 | 64 | 1008.2 |
| 20260509213507 | 91 | 325 | 0.0 | 0.9 | 0.00 | 0.00 | 0.00 | 64 | 1008.2 |
| 20260509213028 | 91 | 325 | 0.0 | 0.9 | 0.00 | 0.00 | 0.00 | 61 | 1008.1 |
| 20260509212506 | 93 | 75 | 0.0 | 0.9 | 0.00 | 0.00 | 0.00 | 60 | 1008.1 |
| 20260509212007 | 93 | 114 | 0.0 | 0.9 | 0.00 | 0.00 | 0.00 | 60 | 1008.2 |
| 20260509211527 | 95 | 85 | 0.0 | 1.7 | 0.00 | 0.00 | 0.00 | 56 | 1008.3 |
| 20260509211006 | 95 | 242 | 0.0 | 1.7 | 0.00 | 0.00 | 0.00 | 60 | 1008.2 |
| 20260509210503 | 94 | 1 | 0.0 | 1.7 | 0.00 | 0.00 | 0.00 | 61 | 1008.4 |
| 20260509210029 | 94 | 316 | 0.0 | 0.9 | 0.00 | 0.00 | 0.00 | 56 | 1008.5 |
| 20260509205506 | 94 | 236 | 0.0 | 0.9 | 0.00 | 0.00 | 0.00 | 60 | 1008.6 |
| 20260509205008 | 93 | 235 | 0.0 | 0.9 | 0.00 | 0.00 | 0.00 | 61 | 1008.6 |
| 20260509204524 | 91 | 40 | 0.0 | 1.7 | 0.00 | 0.00 | 0.00 | 66 | 1008.7 |
| 20260509204007 | 92 | 40 | 0.9 | 1.7 | 0.00 | 0.00 | 0.00 | 60 | 1008.7 |
| 20260509203511 | 94 | 226 | 0.0 | 0.9 | 0.00 | 0.00 | 0.00 | 60 | 1008.8 |
| 20260509203025 | 93 | 224 | 0.0 | 0.9 | 0.00 | 0.00 | 0.00 | 61 | 1008.8 |
| 20260509202505 | 93 | 224 | 0.0 | 0.9 | 0.00 | 0.00 | 0.00 | 63 | 1009.0 |
| 20260509202018 | 92 | 115 | 0.0 | 1.7 | 0.00 | 0.00 | 0.00 | 62 | 1008.9 |
| 20260509201523 | 91 | 218 | 0.0 | 1.7 | 0.00 | 0.00 | 0.00 | 62 | 1008.9 |
| 20260509201010 | 90 | 219 | 0.0 | 0.9 | 0.00 | 0.00 | 0.00 | 66 | 1009.0 |
| 20260509200511 | 90 | 239 | 0.0 | 2.6 | 0.00 | 0.00 | 0.00 | 64 | 1009.0 |
| 20260509200020 | 90 | 306 | 0.9 | 2.6 | 0.00 | 0.00 | 0.00 | 65 | 1009.1 |
| 20260509195515 | 91 | 274 | 0.0 | 1.7 | 0.00 | 0.00 | 0.00 | 63 | 1009.1 |
| 20260509195007 | 91 | 280 | 0.0 | 0.9 | 0.00 | 0.00 | 0.00 | 64 | 1009.2 |
| 20260509194529 | 90 | 207 | 0.0 | 0.9 | 0.00 | 0.00 | 0.00 | 64 | 1009.2 |
| 20260509194011 | 90 | 203 | 0.0 | 1.7 | 0.00 | 0.00 | 0.00 | 64 | 1009.2 |
| 20260509193512 | 89 | 177 | 0.0 | 2.6 | 0.00 | 0.00 | 0.00 | 68 | 1009.3 |
| 20260509193028 | 89 | 354 | 0.9 | 2.6 | 0.00 | 0.00 | 0.00 | 65 | 1009.4 |
| 20260509192510 | 89 | 216 | 0.0 | 3.5 | 0.00 | 0.00 | 0.00 | 67 | 1009.5 |
| 20260509192007 | 89 | 238 | 0.0 | 3.5 | 0.00 | 0.00 | 0.00 | 65 | 1009.5 |
| 20260509191528 | 89 | 203 | 0.9 | 1.7 | 0.00 | 0.00 | 0.00 | 67 | 1009.5 |
| 20260509191007 | 89 | 217 | 0.0 | 1.7 | 0.00 | 0.00 | 0.00 | 66 | 1009.6 |
| 20260509190509 | 89 | 207 | 0.0 | 1.7 | 0.00 | 0.00 | 0.00 | 65 | 1009.6 |
| 20260509190025 | 90 | 206 | 0.0 | 2.6 | 0.00 | 0.00 | 0.00 | 65 | 1009.8 |
| 20260509185506 | 90 | 334 | 0.0 | 2.6 | 0.00 | 0.00 | 0.00 | 65 | 1009.9 |
| 20260509185010 | 90 | 322 | 0.0 | 1.7 | 0.00 | 0.00 | 0.00 | 63 | 1009.9 |
| 20260509184537 | 89 | 207 | 0.0 | 1.7 | 0.00 | 0.00 | 0.00 | 66 | 1010.0 |
| 20260509184012 | 88 | 213 | 0.0 | 1.7 | 0.00 | 0.00 | 0.00 | 70 | 1010.1 |
| 20260509183507 | 88 | 60 | 0.0 | 2.6 | 0.00 | 0.00 | 0.00 | 66 | 1010.2 |
| 20260509183024 | 88 | 224 | 0.9 | 2.6 | 0.00 | 0.00 | 0.00 | 66 | 1010.0 |
| 20260509182509 | 89 | 359 | 0.0 | 0.9 | 0.00 | 0.00 | 0.00 | 65 | 1010.2 |
| 20260509182011 | 90 | 247 | 0.0 | 0.9 | 0.00 | 0.00 | 0.00 | 66 | 1010.3 |
| 20260509181504 | 90 | 200 | 0.0 | 0.9 | 0.00 | 0.00 | 0.00 | 68 | 1010.4 |
| 20260509181004 | 89 | 200 | 0.0 | 1.7 | 0.00 | 0.00 | 0.00 | 70 | 1010.5 |
| 20260509180504 | 89 | 221 | 0.0 | 1.7 | 0.00 | 0.00 | 0.00 | 70 | 1010.7 |
| 20260509180003 | 88 | 220 | 0.0 | 0.9 | 0.00 | 0.00 | 0.00 | 71 | 1010.8 |
| 20260509175504 | 87 | 205 | 0.0 | 0.9 | 0.00 | 0.00 | 0.00 | 70 | 1010.8 |
| 20260509175004 | 86 | 205 | 0.0 | 1.7 | 0.00 | 0.00 | 0.00 | 73 | 1010.9 |
| 20260509174517 | 86 | 212 | 0.0 | 1.7 | 0.00 | 0.00 | 0.00 | 71 | 1010.8 |
| 20260509174003 | 86 | 231 | 0.0 | 1.7 | 0.00 | 0.00 | 0.00 | 72 | 1010.8 |
| 20260509173504 | 86 | 250 | 0.0 | 0.0 | 0.00 | 0.00 | 0.00 | 72 | 1010.9 |
| 20260509173015 | 85 | 357 | 0.0 | 0.9 | 0.00 | 0.00 | 0.00 | 77 | 1010.9 |
| 20260509172503 | 84 | 357 | 0.0 | 0.9 | 0.00 | 0.00 | 0.00 | 74 | 1010.9 |
| 20260509172002 | 84 | 328 | 0.0 | 0.9 | 0.00 | 0.00 | 0.00 | 77 | 1010.9 |
| 20260509171511 | 83 | 325 | 0.0 | 0.9 | 0.00 | 0.00 | 0.00 | 78 | 1010.9 |
| 20260509171002 | 83 | 354 | 0.0 | 2.6 | 0.00 | 0.00 | 0.00 | 76 | 1010.9 |
| 20260509170508 | 83 | 342 | 0.9 | 2.6 | 0.00 | 0.00 | 0.00 | 75 | 1010.8 |
| 20260509170009 | 83 | 238 | 0.0 | 0.9 | 0.00 | 0.00 | 0.00 | 77 | 1010.8 |
| 20260509165502 | 83 | 315 | 0.0 | 0.9 | 0.00 | 0.00 | 0.00 | 79 | 1010.8 |
| 20260509165005 | 83 | 315 | 0.0 | 0.9 | 0.00 | 0.00 | 0.00 | 78 | 1010.8 |
| 20260509164507 | 83 | 255 | 0.0 | 0.9 | 0.00 | 0.00 | 0.00 | 79 | 1010.9 |
| 20260509164002 | 82 | 252 | 0.0 | 3.5 | 0.00 | 0.00 | 0.00 | 81 | 1010.8 |
| 20260509163507 | 81 | 251 | 0.0 | 3.5 | 0.00 | 0.00 | 0.00 | 81 | 1010.6 |
| 20260509163004 | 81 | 223 | 0.0 | 4.3 | 0.00 | 0.00 | 0.00 | 84 | 1010.4 |
| 20260509162508 | 80 | 223 | 0.0 | 4.3 | 0.00 | 0.00 | 0.00 | 83 | 1010.6 |
| 20260509162005 | 80 | 139 | 0.0 | 0.9 | 0.00 | 0.00 | 0.00 | 84 | 1010.7 |
| 20260509161506 | 80 | 160 | 0.0 | 0.9 | 0.00 | 0.00 | 0.00 | 85 | 1010.8 |
| 20260509161008 | 79 | 139 | 0.0 | 1.7 | 0.00 | 0.00 | 0.00 | 85 | 1011.0 |
| 20260509160504 | 79 | 214 | 0.0 | 1.7 | 0.00 | 0.00 | 0.00 | 86 | 1011.1 |
| 20260509160003 | 79 | 188 | 0.0 | 0.9 | 0.00 | 0.00 | 0.00 | 88 | 1011.0 |
| 20260509155503 | 78 | 236 | 0.0 | 0.9 | 0.00 | 0.00 | 0.00 | 88 | 1011.0 |
| 20260509155003 | 78 | 237 | 0.0 | 0.0 | 0.00 | 0.00 | 0.00 | 88 | 1011.2 |
| 20260509154519 | 78 | 236 | 0.0 | 0.9 | 0.00 | 0.00 | 0.00 | 87 | 1011.4 |
| 20260509154010 | 78 | 204 | 0.0 | 0.9 | 0.00 | 0.00 | 0.00 | 88 | 1011.1 |
| 20260509153502 | 78 | 225 | 0.0 | 0.0 | 0.00 | 0.00 | 0.00 | 88 | 1011.1 |
| 20260509153016 | 78 | 226 | 0.0 | 0.0 | 0.00 | 0.00 | 0.00 | 89 | 1011.2 |
| 20260509152504 | 78 | 225 | 0.0 | 0.9 | 0.00 | 0.00 | 0.00 | 89 | 1011.3 |
| 20260509152014 | 78 | 226 | 0.0 | 0.9 | 0.00 | 0.00 | 0.00 | 90 | 1011.1 |
| 20260509151514 | 77 | 227 | 0.0 | 0.9 | 0.00 | 0.00 | 0.00 | 90 | 1011.2 |
| 20260509151003 | 77 | 205 | 0.0 | 0.0 | 0.00 | 0.00 | 0.00 | 90 | 1011.2 |
| 20260509150510 | 77 | 204 | 0.0 | 0.0 | 0.00 | 0.00 | 0.00 | 92 | 1011.1 |
| 20260509150010 | 77 | 204 | 0.0 | 0.0 | 0.00 | 0.00 | 0.00 | 91 | 1011.0 |
| 20260509145504 | 76 | 167 | 0.0 | 0.0 | 0.00 | 0.00 | 0.00 | 92 | 1010.9 |
| 20260509145005 | 76 | 167 | 0.0 | 0.0 | 0.00 | 0.00 | 0.00 | 92 | 1011.0 |
| 20260509144510 | 76 | 167 | 0.0 | 0.0 | 0.00 | 0.00 | 0.00 | 93 | 1011.1 |
| 20260509144009 | 76 | 166 | 0.0 | 0.0 | 0.00 | 0.00 | 0.00 | 93 | 1011.1 |
| 20260509143503 | 76 | 166 | 0.0 | 0.9 | 0.00 | 0.00 | 0.00 | 93 | 1010.9 |
| 20260509143006 | 75 | 165 | 0.0 | 0.9 | 0.00 | 0.00 | 0.00 | 93 | 1010.7 |
| 20260509142507 | 75 | 220 | 0.0 | 1.7 | 0.00 | 0.00 | 0.00 | 94 | 1010.7 |
| 20260509142007 | 75 | 219 | 0.0 | 1.7 | 0.00 | 0.00 | 0.00 | 94 | 1010.4 |
| 20260509141503 | 75 | 203 | 0.0 | 0.9 | 0.00 | 0.00 | 0.00 | 94 | 1010.5 |
| 20260509141008 | 75 | 203 | 0.0 | 0.9 | 0.00 | 0.00 | 0.00 | 94 | 1010.5 |
| 20260509140502 | 75 | 235 | 0.0 | 0.0 | 0.00 | 0.00 | 0.00 | 95 | 1010.4 |
| 20260509140022 | 75 | 235 | 0.0 | 0.0 | 0.00 | 0.00 | 0.00 | 95 | 1010.5 |
| 20260509135504 | 75 | 236 | 0.0 | 0.0 | 0.00 | 0.00 | 0.00 | 95 | 1010.5 |
| 20260509135003 | 75 | 235 | 0.0 | 0.0 | 0.00 | 0.00 | 0.00 | 95 | 1010.9 |
| 20260509134522 | 74 | 235 | 0.0 | 0.0 | 0.00 | 0.00 | 0.00 | 95 | 1010.8 |
| 20260509134003 | 74 | 235 | 0.0 | 0.0 | 0.00 | 0.00 | 0.00 | 95 | 1011.0 |
| 20260509133506 | 74 | 235 | 0.0 | 0.0 | 0.00 | 0.00 | 0.00 | 95 | 1011.0 |
| 20260509133019 | 74 | 233 | 0.0 | 0.9 | 0.00 | 0.00 | 0.00 | 95 | 1011.0 |
| 20260509132505 | 74 | 213 | 0.0 | 0.9 | 0.00 | 0.00 | 0.00 | 96 | 1011.1 |
| 20260509132007 | 74 | 153 | 0.0 | 0.0 | 0.00 | 0.00 | 0.00 | 96 | 1011.0 |
| 20260509131514 | 74 | 153 | 0.0 | 0.0 | 0.00 | 0.00 | 0.00 | 96 | 1011.0 |
| 20260509131005 | 74 | 153 | 0.0 | 0.0 | 0.00 | 0.00 | 0.00 | 96 | 1011.1 |
| 20260509130509 | 74 | 152 | 0.0 | 0.0 | 0.00 | 0.00 | 0.00 | 96 | 1011.1 |
| 20260509130014 | 74 | 152 | 0.0 | 0.0 | 0.00 | 0.00 | 0.00 | 96 | 1011.1 |
| 20260509125509 | 73 | 152 | 0.0 | 0.0 | 0.00 | 0.00 | 0.00 | 96 | 1010.7 |
| 20260509125010 | 73 | 152 | 0.0 | 0.0 | 0.00 | 0.00 | 0.00 | 96 | 1010.8 |
| 20260509124511 | 73 | 152 | 0.0 | 0.0 | 0.00 | 0.00 | 0.00 | 96 | 1011.0 |
| 20260509124007 | 73 | 152 | 0.0 | 0.0 | 0.00 | 0.00 | 0.00 | 96 | 1010.9 |
| 20260509123503 | 73 | 152 | 0.0 | 0.0 | 0.00 | 0.00 | 0.00 | 96 | 1011.0 |
| 20260509123005 | 73 | 152 | 0.0 | 0.0 | 0.00 | 0.00 | 0.00 | 96 | 1011.0 |
| 20260509122508 | 73 | 152 | 0.0 | 0.0 | 0.00 | 0.00 | 0.00 | 96 | 1010.9 |
| 20260509122006 | 73 | 152 | 0.0 | 0.0 | 0.00 | 0.00 | 0.00 | 96 | 1010.8 |
| 20260509121527 | 73 | 152 | 0.0 | 0.0 | 0.00 | 0.00 | 0.00 | 96 | 1011.0 |
| 20260509121006 | 73 | 153 | 0.0 | 0.0 | 0.00 | 0.00 | 0.00 | 96 | 1010.9 |
| 20260509120504 | 73 | 153 | 0.0 | 0.0 | 0.00 | 0.00 | 0.00 | 96 | 1010.8 |
| 20260509120023 | 73 | 153 | 0.0 | 0.0 | 0.00 | 0.00 | 0.00 | 96 | 1010.6 |
| 20260509115506 | 73 | 153 | 0.0 | 0.0 | 0.00 | 0.00 | 0.00 | 96 | 1010.4 |
| 20260509115006 | 73 | 153 | 0.0 | 0.0 | 0.00 | 0.00 | 0.00 | 96 | 1010.3 |
| 20260509114525 | 73 | 153 | 0.0 | 0.0 | 0.00 | 0.00 | 0.00 | 96 | 1010.2 |
| 20260509114007 | 73 | 89 | 0.0 | 0.0 | 0.00 | 0.00 | 0.00 | 96 | 1010.6 |
| 20260509113507 | 73 | 89 | 0.0 | 0.0 | 0.00 | 0.00 | 0.00 | 96 | 1010.5 |
| 20260509113020 | 73 | 89 | 0.0 | 0.0 | 0.00 | 0.00 | 0.00 | 96 | 1010.6 |
| 20260509112503 | 73 | 89 | 0.0 | 0.0 | 0.00 | 0.00 | 0.00 | 96 | 1010.5 |
| 20260509112007 | 73 | 89 | 0.0 | 0.0 | 0.00 | 0.00 | 0.00 | 96 | 1010.6 |
| 20260509111526 | 73 | 89 | 0.0 | 0.0 | 0.00 | 0.00 | 0.00 | 96 | 1010.5 |
| 20260509111014 | 73 | 89 | 0.0 | 0.0 | 0.00 | 0.00 | 0.00 | 96 | 1010.5 |
| 20260509110507 | 73 | 89 | 0.0 | 0.0 | 0.00 | 0.00 | 0.00 | 96 | 1010.7 |
| 20260509110014 | 73 | 89 | 0.0 | 0.0 | 0.00 | 0.00 | 0.00 | 96 | 1010.7 |
| 20260509105507 | 73 | 89 | 0.0 | 0.0 | 0.00 | 0.00 | 0.00 | 96 | 1010.8 |
| 20260509105007 | 73 | 89 | 0.0 | 0.0 | 0.00 | 0.00 | 0.00 | 96 | 1010.7 |
| 20260509104523 | 73 | 89 | 0.0 | 0.0 | 0.00 | 0.00 | 0.00 | 96 | 1010.6 |
| 20260509104008 | 73 | 89 | 0.0 | 0.0 | 0.00 | 0.00 | 0.00 | 96 | 1010.5 |
| 20260509103503 | 73 | 89 | 0.0 | 0.0 | 0.00 | 0.00 | 0.00 | 96 | 1010.6 |
| 20260509103029 | 73 | 89 | 0.0 | 0.0 | 0.00 | 0.00 | 0.00 | 96 | 1010.8 |
| 20260509102510 | 73 | 89 | 0.0 | 0.0 | 0.00 | 0.00 | 0.00 | 95 | 1010.6 |
| 20260509102004 | 73 | 89 | 0.0 | 0.0 | 0.00 | 0.00 | 0.00 | 95 | 1010.4 |
| 20260509101530 | 73 | 89 | 0.0 | 0.0 | 0.00 | 0.00 | 0.00 | 96 | 1010.2 |
| 20260509101007 | 73 | 89 | 0.0 | 0.0 | 0.00 | 0.00 | 0.00 | 96 | 1010.2 |
| 20260509100504 | 73 | 89 | 0.0 | 0.0 | 0.00 | 0.00 | 0.00 | 96 | 1010.0 |
| 20260509100031 | 73 | 89 | 0.0 | 0.0 | 0.00 | 0.00 | 0.00 | 95 | 1010.0 |
| 20260509095508 | 73 | 89 | 0.0 | 0.0 | 0.00 | 0.00 | 0.00 | 96 | 1010.1 |
| 20260509095007 | 72 | 89 | 0.0 | 0.0 | 0.00 | 0.00 | 0.00 | 96 | 1010.0 |
| 20260509094527 | 72 | 89 | 0.0 | 0.0 | 0.00 | 0.00 | 0.00 | 96 | 1010.0 |
| 20260509094005 | 72 | 89 | 0.0 | 0.0 | 0.00 | 0.00 | 0.00 | 95 | 1010.0 |
| 20260509093507 | 72 | 89 | 0.0 | 0.0 | 0.00 | 0.00 | 0.00 | 95 | 1010.0 |
| 20260509093022 | 72 | 89 | 0.0 | 0.0 | 0.00 | 0.00 | 0.00 | 95 | 1010.1 |
| 20260509092503 | 72 | 89 | 0.0 | 0.0 | 0.00 | 0.00 | 0.00 | 95 | 1010.3 |
| 20260509092007 | 72 | 89 | 0.0 | 0.0 | 0.00 | 0.00 | 0.00 | 95 | 1010.3 |
| 20260509091517 | 73 | 89 | 0.0 | 0.0 | 0.00 | 0.00 | 0.00 | 95 | 1010.2 |
| 20260509091008 | 73 | 89 | 0.0 | 0.0 | 0.00 | 0.00 | 0.00 | 95 | 1010.1 |
| 20260509090509 | 73 | 89 | 0.0 | 0.0 | 0.00 | 0.00 | 0.00 | 95 | 1010.2 |
| 20260509090016 | 73 | 89 | 0.0 | 0.0 | 0.00 | 0.00 | 0.00 | 95 | 1010.2 |
| 20260509085508 | 73 | 89 | 0.0 | 0.0 | 0.00 | 0.00 | 0.00 | 95 | 1010.3 |
| 20260509085009 | 73 | 89 | 0.0 | 0.0 | 0.00 | 0.00 | 0.00 | 95 | 1010.4 |
| 20260509084528 | 73 | 89 | 0.0 | 0.0 | 0.00 | 0.00 | 0.00 | 95 | 1010.5 |
| 20260509084008 | 73 | 89 | 0.0 | 0.0 | 0.00 | 0.00 | 0.00 | 95 | 1010.6 |
| 20260509083507 | 73 | 89 | 0.0 | 0.0 | 0.00 | 0.00 | 0.00 | 95 | 1010.6 |
| 20260509083038 | 73 | 89 | 0.0 | 0.0 | 0.00 | 0.00 | 0.00 | 95 | 1010.5 |
| 20260509082508 | 73 | 89 | 0.0 | 0.0 | 0.00 | 0.00 | 0.00 | 95 | 1010.5 |
| 20260509082007 | 72 | 89 | 0.0 | 0.0 | 0.00 | 0.00 | 0.00 | 95 | 1010.7 |
| 20260509081528 | 72 | 89 | 0.0 | 0.0 | 0.00 | 0.00 | 0.00 | 95 | 1010.7 |
| 20260509081007 | 72 | 89 | 0.0 | 0.0 | 0.00 | 0.00 | 0.00 | 95 | 1010.6 |
| 20260509080507 | 72 | 89 | 0.0 | 0.0 | 0.00 | 0.00 | 0.00 | 95 | 1010.4 |
| 20260509080025 | 72 | 89 | 0.0 | 0.0 | 0.00 | 0.00 | 0.00 | 95 | 1010.3 |